Location: Nelson
(41.2830°S, 173.2830°E)
Time: 19:30:32
(UTC+12:00)

COSMOS 2428 - Pass Details

Date: 14 May 2021
Orbit: 844 x 859 km, 70.9° (Epoch: 19 June)

Event Time Altitude Azimuth Distance (km) Brightness Sun altitude
Rises 17:37:10 0° 345° (NNW) 3,412 6.4 -4.0°
Reaches altitude 10° 17:39:36 10° 347° (NNW) 2,482 5.7 -4.4°
Maximum altitude 17:45:16 70° 69° (ENE) 913 2.8 -5.4°
Drops below altitude 10° 17:51:00 10° 152° (SSE) 2,502 4.7 -6.4°
Sets 17:53:28 0° 153° (SSE) 3,442 5.4 -6.8°
